Location: Marsån
(66.4167°N, 22.2833°E)
Time: 11:04:01
(UTC+00:00)

Terra - Pass Details

Date: 24 February 2024
Orbit: 693 x 696 km, 98.1° (Epoch: 16 April)

Event Time Altitude Azimuth Distance (km) Brightness Sun altitude
Exits shadow 17:00:25 14° 87° (E) 1,914 3.4 -10.3°
Maximum altitude 17:03:28 25° 39° (NE) 1,392 3.0 -10.6°
Drops below altitude 10° 17:07:19 10° 345° (NNW) 2,173 4.6 -11.0°
Sets 17:09:53 0° 332° (NNW) 3,094 5.6 -11.2°
